Tracking 34717 objects as of 15-Jul-2026
HD Live streaming from Space Station
objects crossing your sky now

STARLINK-37877

Track STARLINK-37877 now!
10-day predictions
STARLINK-37877 is classified as:


NORAD ID: 69335
Int'l Code: 2026-122G
Perigee: 472.4 km
Apogee: 473.0 km
Inclination: 97.3 °
Period: 93.9 minutes
Semi major axis: 6843 km
RCS: Unknown
Launch date: June 3, 2026
Source: United States (US)
Launch site: AIR FORCE WESTERN TEST RANGE (AFWTR)
Your satellite tracking list
Your tracking list is empty




NASA's NSSDC Master Catalog

Two Line Element Set (TLE):
1 69335U 26122G   26195.61437850  .00009552  00000-0  29786-3 0  9992
2 69335  97.2843 225.1693 0000461 102.6137 257.5157 15.33441936  6399
Source of the keplerian elements: AFSPC